Find STARLINK-37608

NORAD ID: 70625 Constellation: starlink operational
LEOCIRCULARRETROGRADE

实时位置

正在加载3D地球...

关于 STARLINK-37608

正在加载描述...

即将过境

Passes for default location (London). Set your location on the main map for personalized predictions.

高度历史

Loading altitude history...

两行轨道根数

1 70625C 26101N 26126.29145833 .00507530 00000+0 79149-3 0 1266
2 70625 97.2847 339.8300 0010117 258.7531 231.0563 16.03706480 12
Epoch: May 6, 2026 • Age: 19 hours